Flag Weather past 2 weeks in Mumbai, Maharashtra, India

Now
90 °F

Clear.


Feels Like: 90 °F
Forecast: 81 / 92 °F
Wind: 3 mph from North

Location: Bombay / Santacruz

Current Time: Nov 23, 2014 at 12:58:36 PM

Latest Report: Nov 23, 2014 at 11:40 AM


Visibility: 1 mi

Pressure: 29.89 "Hg

Humidity: 41%

Dew point: 63 °F

Location of MumbaiLocation

Historic Weather in Mumbai — Graph

°F

Mumbai temperature yesterday

Maximum temperature yesterday: 93 °F (at 1:40 PM)
Minimum temperature yesterday: 75 °F (at 5:40 AM)
Average temperature yesterday: 84 °F

Past Weeks' High & Low Weather Summary

 TemperatureHumidityPressure
High97 °F (Nov 10, 2:10 PM)84% (Nov 11, 3:10 AM)29.98 "Hg (Nov 11, 3:10 AM)
Low75 °F (Nov 22, 5:40 AM)25% (Nov 9, 2:40 PM)29.77 "Hg (Nov 10, 2:40 PM)
Average86 °F60%29.87 "Hg
* Reported Nov 8 11:40 AM — Nov 23 11:40 AM, Mumbai, Weather by CustomWeather, © 2014

Note: Actual official high and low records may vary slightly from our data, if they occured in-between our weather recording intervals... More about our weather records

Advertising

Mumbai weather history for previous 24 hours

 ConditionsComfort  
Time TempWeatherWind HumidityBarometerVisibility
11:40 AM
Nov 23
90 °FClear.3 mph41%29.89 "Hg1 mi
11:10 AM88 °FClear.6 mph43%29.92 "Hg1 mi
10:40 AM88 °FClear.6 mph43%29.92 "Hg1 mi
10:10 AM86 °FClear.7 mph46%29.92 "Hg1 mi
9:40 AM86 °FClear.8 mph46%29.92 "Hg1 mi
8:40 AM81 °FClear.5 mph54%29.92 "Hg1 mi
8:10 AM81 °FClear.3 mph58%29.89 "Hg1 mi
7:40 AM79 °FHaze.No wind61%29.89 "Hg1 mi
6:40 AM79 °FHaze.No wind65%29.86 "Hg1 mi
6:10 AM77 °FHaze.No wind69%29.86 "Hg1 mi
5:40 AM79 °FHaze.No wind70%29.83 "Hg1 mi
5:10 AM79 °FHaze.No wind70%29.83 "Hg1 mi
4:40 AM79 °FHaze.3 mph65%29.83 "Hg1 mi
4:10 AM77 °FHaze.No wind74%29.83 "Hg1 mi
3:40 AM79 °FHaze.No wind70%29.83 "Hg1 mi
2:40 AM81 °FHaze.3 mph62%29.83 "Hg1 mi
2:10 AM81 °FHaze.5 mph66%29.86 "Hg1 mi
1:40 AM81 °FHaze.5 mph70%29.86 "Hg1 mi
1:10 AM81 °FHaze.3 mph74%29.86 "Hg1 mi
12:40 AM82 °FHaze.5 mph70%29.86 "Hg1 mi
12:10 AM82 °FHaze.3 mph70%29.89 "Hg1 mi
11:40 PM
Nov 22
82 °FHaze.5 mph70%29.89 "Hg1 mi
11:10 PM82 °FHaze.3 mph74%29.89 "Hg1 mi
10:40 PM82 °FHaze.5 mph74%29.89 "Hg1 mi
10:10 PM82 °FHaze.3 mph74%29.89 "Hg1 mi
9:40 PM84 °FHaze.3 mph70%29.89 "Hg1 mi
9:10 PM84 °FHaze.3 mph70%29.89 "Hg1 mi
8:40 PM84 °FHaze.6 mph66%29.89 "Hg1 mi
8:10 PM84 °FHaze.6 mph66%29.86 "Hg1 mi
7:40 PM84 °FHaze.5 mph66%29.86 "Hg1 mi
7:10 PM86 °FHaze.8 mph59%29.83 "Hg1 mi
6:40 PM86 °FPassing clouds.7 mph59%29.83 "Hg1 mi
6:10 PM86 °FScattered clouds.8 mph59%29.83 "Hg1 mi
5:40 PM86 °FPassing clouds.8 mph59%29.80 "Hg1 mi
5:10 PM88 °FPassing clouds.9 mph49%29.80 "Hg1 mi
4:40 PM90 °FPassing clouds.7 mph46%29.80 "Hg1 mi
4:10 PM90 °FClear.8 mph46%29.80 "Hg1 mi
3:40 PM90 °FClear.9 mph49%29.80 "Hg1 mi
3:10 PM90 °FClear.10 mph49%29.80 "Hg1 mi
2:40 PM90 °FPassing clouds.9 mph52%29.80 "Hg1 mi
2:10 PM91 °FPassing clouds.10 mph49%29.80 "Hg1 mi
1:40 PM93 °FClear.3 mph32%29.83 "Hg1 mi
1:10 PM91 °FClear.8 mph44%29.83 "Hg2 mi
12:40 PM91 °FClear.5 mph34%29.86 "Hg2 mi
Weather by CustomWeather, © 2014

See weather overviewHow to use our weather pages